Regional Weather Roundup
Issued by NWS Sterling, VA

Home | Current Version | Previous Version | Graphics & Text | Print | Product List | Glossary On
Versions: 1 2 3 4 5 6 7 8 9 10 11 12 13 14 15 16 17 18 19 20 21 22 23 24 25 26 27 28 29 30 31 32 33 34 35 36 37 38 39 40 41 42 43 44 45 46 47 48 49 50
000
ASUS41 KLWX 101210
RWRLWX

REGIONAL WEATHER ROUNDUP
NATIONAL WEATHER SERVICE BALTIMORE MD/WASHINGTON DC
700 AM EST SAT DEC 10 2016

Note: "FAIR" indicates few or no clouds below 12,000 feet
with no significant weather and/or obstructions to visibility.
 TC=TEMPERATURE CELSIUS

 * =Non NWS site. Station does not report precipitation (e.g. rain,
    snow, etc.), thunder, or fog.

DCZ001-MDZ009-015-VAZ040>042-051-053>054-101300-
WASHINGTON METRO

CITY           SKY/WX    TMP DP  RH WIND       PRES   REMARKS
WASHINGTON NAT PTCLDY    31  14  49 VRB3      30.51R
DULLES         PTCLDY    27  12  53 CALM      30.50R
ANDREWS AFB    CLEAR     28  14  57 W9        30.47R WCI  19
QUANTICO       CLEAR     27  19  72 CALM      30.53R
COLLEGE PARK*  CLEAR     30  14  51 W5        30.49R
LEESBURG*      CLEAR     30  19  64 W12G17    30.50R WCI  21
MANASSAS*      CLEAR    N/A N/A N/A CALM      30.52
GAITHERSBURG*  PTCLDY    25  12  58 W6        30.51R

$$

MDZ006>007-011-014-101300-
BALTIMORE METRO

CITY           SKY/WX    TMP DP  RH WIND       PRES   REMARKS
BWI AIRPORT    PTCLDY    24  17  74 W6        30.47R
MD SCIENCE CTR   N/A     29  15  56 MISG      30.48R
MARTIN STATE   CLEAR     30  19  64 W6        30.49R
ANNAPOLIS      CLEAR     30  17  58 W6        30.49R
FORT MEADE*    CLEAR     23  19  86 CALM      30.50S

$$

MDZ012-015-019>023-101300-
MARYLAND EASTERN SHORE

CITY           SKY/WX    TMP DP  RH WIND       PRES   REMARKS
OCEAN CITY     CLEAR     26  18  71 W3        30.48R
SALISBURY      CLEAR     23  18  81 SW3       30.48R
BAY BRIDGE AP* CLEAR     30  19  64 MISG      30.48R
CAMBRIDGE*     CLEAR     32  18  55 NW9G16    30.49R WCI  24
EASTON*        CLEAR     28  18  64 CALM      30.52R

$$

MDZ017>025-101300-
SOUTHERN MARYLAND

CITY           SKY/WX    TMP DP  RH WIND       PRES   REMARKS
PATUXENT RIVER CLEAR     29  17  61 W10       30.49R WCI  20
ST INIGOES     CLEAR     30  18  60 W8        30.50R WCI  22
LEONARDTOWN*   CLEAR     28  18  64 W7        30.51R

$$

MDZ003>005-101300-
NORTH CENTRAL MARYLAND

CITY           SKY/WX    TMP DP  RH WIND       PRES   REMARKS
FREDERICK*     CLOUDY    28  19  69 SW5       30.51R
HAGERSTOWN APT PTCLDY    29  13  51 W10       30.45R WCI  20
WESTMINSTER*     N/A     25  16  68 SW8       30.43R WCI  16

$$

MDZ501>502-101300-
WESTERN MARYLAND

CITY           SKY/WX    TMP DP  RH WIND       PRES   REMARKS
OAKLAND*       CLOUDY    14  12  92 W12       30.31S FOG     WCI   0
CUMBERLAND*    NOT AVBL

$$

VAZ025>031-101300-
SHENANDOAH VALLEY

CITY           SKY/WX    TMP DP  RH WIND       PRES   REMARKS
WINCHESTER*    PTCLDY    27  12  54 W9        30.47S WCI  17
FRONT ROYAL*   FAIR      27  12  54 CALM      30.48S
LURAY*         FAIR      23  18  80 CALM      30.48S
NEW MARKET*    FAIR      18  13  80 CALM      30.48R
STAUNTON*      CLEAR     15  10  81 CALM      30.49S
WAYNESBORO*    FAIR      17   9  71 SW5       30.45S

$$

WVZ021-048>050-054>055-101300-
EASTERN WEST VIRGINIA PANHANDLE

CITY           SKY/WX    TMP DP  RH WIND       PRES   REMARKS
MARTINSBURG    PTCLDY    27  14  58 W9        30.47R WCI  18
PETERSBURG*    FLURRIES  27  14  56 NW5       30.48F

$$

VAZ036>039-050-101300-
CENTRAL FOOTHILLS

CITY           SKY/WX    TMP DP  RH WIND       PRES   REMARKS
CHARLOTTESVILL PTCLDY    25  11  55 CALM      30.49R
CULPEPER*      CLEAR     20  16  84 CALM      30.51S
ORANGE*          N/A     23  16  74 CALM      30.51S
GORDONSVILLE*  FAIR      21  15  77 SW3       30.49S
WARRENTON*     FAIR      17  11  80 CALM      30.49S

$$

VAZ055>057-101300-
NORTH AND CENTRAL PIEDMONT

CITY           SKY/WX    TMP DP  RH WIND       PRES   REMARKS
FREDERICKSBRG* CLEAR     23  18  81 CALM      30.51S
STAFFORD*      PTCLDY    23  15  72 CALM      30.55R

$$

NCZ024-NYZ072-PAZ021-071-VAZ022-071-101300-
OTHER REGIONAL OBSERVATIONS

CITY           SKY/WX    TMP DP  RH WIND       PRES   REMARKS
NEW YORK CITY  CLEAR     29  15  56 W8        30.39R WCI  21
PHILADELPHIA   PTCLDY    27  17  66 W8        30.44R WCI  19
PITTSBURGH     FLURRIES  25  19  78 W8        30.43S WCI  16
ROANOKE        CLEAR     20  11  68 CALM      30.51R
RICHMOND       PTCLDY    24  15  68 CALM      30.52R

$$

ANZ530>537-101300-
MARINE OBSERVATIONS

STATION/POSITION TIME  TEMP    WIND        PRES
                       AIR SEA DIR/SP/G
                 (UTC) (F)     (DEG/KT/KT) (MB)
THOMAS PT LIGHT  1200   31 46  290/ 16/ 20   N/A
BALT KEY BRIDGE  1148   30     240/ 10/ 12 1032.2R
COVE POINT       1148   30     320/ 11/ 18 1033.0R
LEWISETTA        1148   29 43  290/  8/ 10 1032.8R
SOLOMONS ISLAND  1148   31 48  300/  9/ 13   N/A
PINEY POINT      1142          340/ 19/ 23   N/A

$$




USA.gov is the U.S. government's official web portal to all federal, state and local government web resources and services.